TimeMST,TemperatureF,Dew PointF,Humidity,Sea Level PressureIn,VisibilityMPH,Wind Direction,Wind SpeedMPH,Gust SpeedMPH,PrecipitationIn,Events,Conditions,WindDirDegrees,DateUTC
12:54 AM,23.0,18.0,81,30.35,10.0,East,3.5,-,N/A,,Clear,80,2013-02-02 07:54:00
1:54 AM,21.9,18.0,85,30.35,10.0,Calm,Calm,-,N/A,,Clear,0,2013-02-02 08:54:00
2:54 AM,21.9,18.0,85,30.34,10.0,Calm,Calm,-,N/A,,Clear,0,2013-02-02 09:54:00
3:54 AM,21.9,18.0,85,30.33,10.0,Calm,Calm,-,N/A,,Clear,0,2013-02-02 10:54:00
5:54 AM,21.0,17.1,85,30.39,10.0,Calm,Calm,-,N/A,,Clear,0,2013-02-02 12:54:00
6:54 AM,21.0,17.1,85,30.43,10.0,Calm,Calm,-,N/A,,Clear,0,2013-02-02 13:54:00
7:54 AM,23.0,18.0,81,30.46,10.0,Calm,Calm,-,N/A,,Clear,0,2013-02-02 14:54:00
8:54 AM,36.0,25.0,64,30.42,10.0,Calm,Calm,-,N/A,,Clear,0,2013-02-02 15:54:00
9:54 AM,45.0,21.9,40,30.38,10.0,East,6.9,-,N/A,,Clear,80,2013-02-02 16:54:00
10:54 AM,48.0,21.0,34,30.39,10.0,East,5.8,-,N/A,,Clear,80,2013-02-02 17:54:00
11:54 AM,50.0,17.1,27,30.37,10.0,Calm,Calm,-,N/A,,Clear,0,2013-02-02 18:54:00
12:54 PM,53.1,15.1,22,30.33,10.0,Calm,Calm,-,N/A,,Clear,0,2013-02-02 19:54:00
1:54 PM,54.0,23.0,30,30.31,10.0,NE,10.4,-,N/A,,Clear,50,2013-02-02 20:54:00
2:54 PM,53.1,24.1,32,30.29,10.0,NE,10.4,-,N/A,,Clear,40,2013-02-02 21:54:00
3:54 PM,52.0,25.0,35,30.30,10.0,ENE,12.7,-,N/A,,Clear,60,2013-02-02 22:54:00
4:54 PM,46.9,24.1,41,30.31,10.0,NE,9.2,-,N/A,,Clear,50,2013-02-02 23:54:00
5:54 PM,42.1,21.0,43,30.34,10.0,ENE,8.1,-,N/A,,Clear,60,2013-02-03 00:54:00
6:54 PM,39.0,19.9,46,30.37,10.0,ENE,4.6,-,N/A,,Clear,60,2013-02-03 01:54:00
7:54 PM,37.0,19.0,48,30.37,10.0,Calm,Calm,-,N/A,,Clear,0,2013-02-03 02:54:00
8:54 PM,34.0,21.0,59,30.32,10.0,Calm,Calm,-,N/A,,Clear,0,2013-02-03 03:54:00
9:54 PM,28.9,19.0,67,30.30,10.0,Calm,Calm,-,N/A,,Clear,0,2013-02-03 04:54:00
10:54 PM,28.9,19.9,69,30.27,10.0,Calm,Calm,-,N/A,,Clear,0,2013-02-03 05:54:00
11:54 PM,28.9,21.9,75,30.26,10.0,Calm,Calm,-,N/A,,Clear,0,2013-02-03 06:54:00